Showing default

TIANQI 32, 61198

Orbit data source: Space-Track

TIANQI 32, 61198 is a payload satellite owned by Guodian Gaokeji (CN) in LEO that was launched on Fri, 20 Sep 2024 UTC via a KUAIZHOU-1A launch vehicle from the Xichang Space Center, China (XSC). Payload-class satellites include a variety of spacecraft equipped with specific instruments for various scientific and technological missions. These include communications satellites like Starlink; space stations such as the ISS; scientific satellites like the Hubble; Earth observation satellites from companies like Planet Labs, Umbra, and HawkEye 360; GPS; miniature CubeSats for education and research; and military/defense satellites.

Loading next visibility...
Identifier
61198, 2024-170D
Orbit
LEO
Country
Flag of CNCN / PRC
Related business
Manufacturer
Shanghai ASES
Mission
Operational Commercial Communications
Bus & Motor
STARLIGHTB, Unknown motor
Mass
40 kg wet, ~40 kg dry
Launch date (UTC)
2024-09-20 (1 year ago)
Launch vehicle
KUAIZHOU-1A
Launch site
Xichang Space Center, China (XSC)
Object type
Payload
Rocket body
Debris
Shape & HBR
Box, 0.3 m
Radar Cross Section
0.195 m², Medium (>0.1 m² and < 1m²)

Expand to show TLE details & history
Last TLE update: 20 hours ago

TLE from 20 hours ago
0 TIANQI 32
1 61198U 24170D   25249.25629933  .00000235  00000-0  24952-3 0  9995
2 61198  44.8610 323.3114 0008991 178.3493 181.7369 13.98981170 44773
Epoch: 2025-09-06T06:09Z
TLE epoch observation values (Epoch: 2025-09-06T06:09:04.262Z)
Latitude
0.00002°
Longitude
-114.54908°
Altitude
903.847 km
Speed
7.398 km/s
True Right ascension
21h 33m 14s
True Declination
0° 00' 00"
Sunlit
Object was in full shadow at epoch
Visualization orbit readout
Latitude
Unknown
Longitude
Unknown
Altitude
Unknown
Speed
Unknown
Apparent Right ascension
Unknown
Apparent Declination
Unknown
Sunlit
N/A
Visualization observer readout
Local Sidereal Time
18:23:01
Azimuth
Unknown
Elevation
Unknown
Doppler factor
Unknown
Orbital elements
Apogee altitude
905.408 km
Perigee altitude
892.323 km
Semi-major axis
7,277.002 km
Eccentricity
0.0009
Inclination
44.861°
RAAN
323.3114°
Arg. of periapsis
178.3493°
True anomaly
181.73378°
Mean anomaly
181.7369°
Eccentric anomaly
181.73534°
Mean motion
3.49635 °/min
Orbital period
102.96 mins
BSTAR
0.00024952
Loading maneuver chart data...
Computing Atmospheric mass density...
Loading historical data...
Loading historical data...
Loading historical data...
Loading historical data...
Loading historical data...
Loading historical data...
Loading historical data...
Other satellites on launch #170 in the year 2024 (2024-09-20 UTC)

Documentation

Showing up to 5 results
|